• In Hungary
  • List of Countries
  • For 7 days
  • Water Temperature
  • Satellite Maps
  • Weather Map
  • News
  • Weather Widgets
  • user-avatar
    Login

    Hourly Weather Addi-Ugri

    Today, 28 May, Monday

    Time Temperature Precipitation Wind Pressure Humidity
    00:00 +25°C° 0 mm 1 mps 602 mmHg 31%
    01:00 +24°C° 0 mm 1 mps 601 mmHg 34%
    02:00 +23°C° 0 mm 1 mps 601 mmHg 37%
    03:00 +23°C° 0 mm 1 mps 601 mmHg 39%
    04:00 +22°C° 0 mm 1 mps 600 mmHg 42%
    05:00 +21°C° 0 mm 1 mps 600 mmHg 44%
    06:00 +21°C° 0 mm 1 mps 600 mmHg 47%
    07:00 +22°C° 0 mm 1 mps 601 mmHg 44%
    08:00 +24°C° 0 mm 2 mps 602 mmHg 41%
    09:00 +25°C° 0 mm 2 mps 603 mmHg 37%
    10:00 +26°C° 0 mm 2 mps 603 mmHg 34%
    11:00 +28°C° 0 mm 3 mps 603 mmHg 30%
    12:00 +29°C° 0 mm 3 mps 603 mmHg 26%
    13:00 +29°C° 0 mm 3 mps 603 mmHg 26%
    14:00 +29°C° 0 mm 3 mps 603 mmHg 25%
    15:00 +29°C° 0 mm 3 mps 602 mmHg 25%
    16:00 +29°C° 0 mm 4 mps 602 mmHg 26%
    17:00 +28°C° 0 mm 4 mps 602 mmHg 27%
    18:00 +28°C° 0 mm 4 mps 602 mmHg 28%
    19:00 +27°C° 0 mm 3 mps 602 mmHg 29%
    20:00 +27°C° 0 mm 2 mps 602 mmHg 30%
    21:00 +26°C° 0 mm 1 mps 602 mmHg 31%
    22:00 +25°C° 0 mm 1 mps 602 mmHg 33%
    23:00 +25°C° 0 mm 1 mps 602 mmHg 35%

    Tomorrow, 29 May, Tuesday

    Time Temperature Precipitation Wind Pressure Humidity
    00:00 +24°C° 0 mm 1 mps 601 mmHg 37%
    01:00 +24°C° 0 mm 1 mps 601 mmHg 39%
    02:00 +23°C° 0 mm 1 mps 601 mmHg 41%
    03:00 +23°C° 0 mm 1 mps 600 mmHg 42%
    04:00 +22°C° 0.4 mm 1 mps 600 mmHg 46%
    05:00 +22°C° 0.4 mm 1 mps 600 mmHg 50%
    06:00 +21°C° 0.4 mm 1 mps 600 mmHg 54%
    07:00 +22°C° 0.2 mm 1 mps 601 mmHg 51%
    08:00 +23°C° 0.2 mm 1 mps 602 mmHg 47%
    09:00 +24°C° 0.2 mm 2 mps 602 mmHg 44%
    10:00 +26°C° 0.1 mm 2 mps 603 mmHg 39%
    11:00 +27°C° 0.1 mm 2 mps 603 mmHg 35%
    12:00 +28°C° 0.1 mm 3 mps 603 mmHg 30%
    13:00 +28°C° 0 mm 3 mps 603 mmHg 29%
    14:00 +29°C° 0 mm 4 mps 602 mmHg 28%
    15:00 +29°C° 0 mm 5 mps 602 mmHg 27%
    16:00 +28°C° 0 mm 5 mps 602 mmHg 30%
    17:00 +27°C° 0 mm 5 mps 601 mmHg 32%
    18:00 +27°C° 0 mm 5 mps 601 mmHg 35%
    19:00 +26°C° 0.1 mm 4 mps 601 mmHg 37%
    20:00 +25°C° 0.1 mm 3 mps 601 mmHg 40%
    21:00 +25°C° 0.1 mm 2 mps 602 mmHg 42%
    22:00 +24°C° 0.5 mm 2 mps 601 mmHg 46%
    23:00 +23°C° 0.5 mm 2 mps 601 mmHg 50%

    Day after tomorrow, 30 May, Wednesday

    Time Temperature Precipitation Wind Pressure Humidity
    00:00 +22°C° 0.5 mm 3 mps 601 mmHg 54%
    01:00 +21°C° 0.5 mm 2 mps 601 mmHg 57%
    02:00 +21°C° 0.5 mm 2 mps 600 mmHg 60%
    03:00 +20°C° 0.5 mm 2 mps 600 mmHg 62%
    04:00 +20°C° 0.1 mm 2 mps 600 mmHg 64%
    05:00 +20°C° 0.1 mm 2 mps 600 mmHg 66%
    06:00 +19°C° 0.1 mm 2 mps 600 mmHg 68%
    07:00 +19°C° 0 mm 2 mps 601 mmHg 66%
    08:00 +20°C° 0 mm 2 mps 601 mmHg 64%
    09:00 +20°C° 0 mm 2 mps 602 mmHg 61%
    10:00 +21°C° 0 mm 2 mps 602 mmHg 56%
    11:00 +23°C° 0 mm 2 mps 602 mmHg 51%
    12:00 +24°C° 0 mm 2 mps 603 mmHg 45%
    13:00 +25°C° 0.1 mm 2 mps 602 mmHg 44%
    14:00 +25°C° 0.1 mm 3 mps 602 mmHg 42%
    15:00 +26°C° 0.1 mm 3 mps 602 mmHg 40%
    16:00 +25°C° 0.3 mm 3 mps 602 mmHg 42%
    17:00 +25°C° 0.3 mm 3 mps 602 mmHg 44%
    18:00 +24°C° 0.3 mm 3 mps 602 mmHg 46%
    19:00 +24°C° 0.2 mm 2 mps 602 mmHg 47%
    20:00 +24°C° 0.2 mm 2 mps 602 mmHg 49%
    21:00 +23°C° 0.2 mm 2 mps 602 mmHg 50%
    22:00 +23°C° 0 mm 2 mps 602 mmHg 52%
    23:00 +21°C° 0 mm 2 mps 602 mmHg 53%

    31 May, Thursday

    Time Temperature Precipitation Wind Pressure Humidity
    00:00 +21°C° 0 mm 2 mps 602 mmHg 55%
    01:00 +21°C° 0 mm 2 mps 601 mmHg 57%
    02:00 +20°C° 0 mm 2 mps 601 mmHg 60%
    03:00 +21°C° 0 mm 1 mps 600 mmHg 62%
    04:00 +20°C° 0 mm 1 mps 600 mmHg 64%
    05:00 +20°C° 0 mm 1 mps 600 mmHg 67%
    06:00 +19°C° 0 mm 1 mps 600 mmHg 69%
    07:00 +21°C° 0 mm 1 mps 601 mmHg 62%
    08:00 +22°C° 0 mm 1 mps 602 mmHg 56%
    09:00 +23°C° 0 mm 1 mps 603 mmHg 50%
    10:00 +25°C° 0 mm 1 mps 603 mmHg 44%
    11:00 +26°C° 0 mm 1 mps 604 mmHg 38%
    12:00 +28°C° 0 mm 2 mps 604 mmHg 32%
    13:00 +28°C° 0 mm 3 mps 603 mmHg 32%
    14:00 +28°C° 0 mm 4 mps 603 mmHg 32%
    15:00 +28°C° 0 mm 4 mps 603 mmHg 32%
    16:00 +28°C° 0.1 mm 4 mps 602 mmHg 35%
    17:00 +27°C° 0.1 mm 4 mps 602 mmHg 37%
    18:00 +26°C° 0.1 mm 4 mps 602 mmHg 40%
    19:00 +26°C° 0.1 mm 3 mps 602 mmHg 42%
    20:00 +25°C° 0.1 mm 2 mps 602 mmHg 44%
    21:00 +24°C° 0.1 mm 2 mps 603 mmHg 46%
    22:00 +24°C° 0.2 mm 2 mps 602 mmHg 48%
    23:00 +24°C° 0.2 mm 2 mps 602 mmHg 50%

    1 June, Friday

    Time Temperature Precipitation Wind Pressure Humidity
    00:00 +23°C° 0.2 mm 2 mps 602 mmHg 52%
    01:00 +23°C° 0 mm 1 mps 602 mmHg 54%
    02:00 +22°C° 0 mm 1 mps 601 mmHg 56%
    03:00 +22°C° 0 mm 1 mps 601 mmHg 58%
    04:00 +21°C° 0 mm 1 mps 601 mmHg 59%
    05:00 +21°C° 0 mm 1 mps 601 mmHg 61%
    06:00 +21°C° 0 mm 1 mps 601 mmHg 62%
    07:00 +22°C° 0 mm 1 mps 602 mmHg 57%
    08:00 +23°C° 0 mm 1 mps 603 mmHg 52%
    09:00 +24°C° 0 mm 1 mps 603 mmHg 47%
    10:00 +26°C° 0 mm 2 mps 604 mmHg 42%
    11:00 +27°C° 0 mm 2 mps 604 mmHg 38%
    12:00 +28°C° 0 mm 3 mps 604 mmHg 33%
    13:00 +28°C° 0 mm 3 mps 603 mmHg 34%
    14:00 +28°C° 0 mm 4 mps 603 mmHg 34%
    15:00 +28°C° 0 mm 4 mps 602 mmHg 34%
    16:00 +28°C° 0.1 mm 4 mps 602 mmHg 35%
    17:00 +28°C° 0.1 mm 4 mps 602 mmHg 36%
    18:00 +27°C° 0.1 mm 4 mps 602 mmHg 37%
    19:00 +27°C° 0.1 mm 3 mps 602 mmHg 39%
    20:00 +26°C° 0.1 mm 2 mps 602 mmHg 41%
    21:00 +25°C° 0.1 mm 1 mps 602 mmHg 43%
    22:00 +25°C° 0 mm 1 mps 602 mmHg 45%
    23:00 +24°C° 0 mm 1 mps 602 mmHg 47%

    2 June, Saturday

    Time Temperature Precipitation Wind Pressure Humidity
    00:00 +24°C° 0 mm 1 mps 601 mmHg 49%
    01:00 +24°C° 0 mm 1 mps 601 mmHg 51%
    02:00 +23°C° 0 mm 1 mps 601 mmHg 52%
    03:00 +22°C° 0 mm 1 mps 600 mmHg 54%
    04:00 +22°C° 0 mm 1 mps 600 mmHg 55%
    05:00 +22°C° 0 mm 1 mps 600 mmHg 56%
    06:00 +21°C° 0 mm 1 mps 600 mmHg 57%
    07:00 +23°C° 0 mm 1 mps 601 mmHg 51%
    08:00 +24°C° 0 mm 1 mps 602 mmHg 46%
    09:00 +25°C° 0 mm 1 mps 603 mmHg 40%
    10:00 +27°C° 0 mm 2 mps 603 mmHg 37%
    11:00 +28°C° 0 mm 2 mps 603 mmHg 33%
    12:00 +29°C° 0 mm 3 mps 604 mmHg 30%
    13:00 +29°C° 0 mm 3 mps 603 mmHg 30%
    14:00 +29°C° 0 mm 4 mps 603 mmHg 29%
    15:00 +29°C° 0 mm 4 mps 602 mmHg 28%
    16:00 +29°C° 0 mm 3 mps 602 mmHg 29%
    17:00 +28°C° 0 mm 3 mps 602 mmHg 29%
    18:00 +28°C° 0 mm 3 mps 602 mmHg 29%
    19:00 +27°C° 0 mm 2 mps 602 mmHg 31%
    20:00 +27°C° 0 mm 2 mps 602 mmHg 32%
    21:00 +26°C° 0 mm 1 mps 602 mmHg 34%
    22:00 +25°C° 0 mm 1 mps 602 mmHg 35%
    23:00 +25°C° 0 mm 1 mps 601 mmHg 37%
    Show more